TimeAKST,TemperatureF,Dew PointF,Humidity,Sea Level PressureIn,VisibilityMPH,Wind Direction,Wind SpeedMPH,Gust SpeedMPH,PrecipitationIn,Events,Conditions,WindDirDegrees,DateUTC
12:53 AM,18.0,5.0,57,29.96,10.0,Calm,Calm,-,N/A,,Clear,0,2013-03-07 09:53:00
1:53 AM,16.0,3.9,59,29.96,10.0,Variable,4.6,-,N/A,,Clear,0,2013-03-07 10:53:00
3:53 AM,15.1,3.0,59,29.95,10.0,ESE,9.2,18.4,N/A,,Clear,120,2013-03-07 12:53:00
4:53 AM,14.0,1.9,59,29.94,10.0,ESE,9.2,-,N/A,,Clear,120,2013-03-07 13:53:00
5:53 AM,14.0,1.9,59,29.94,10.0,ESE,11.5,19.6,N/A,,Clear,120,2013-03-07 14:53:00
6:53 AM,14.0,1.9,59,29.93,10.0,ESE,10.4,17.3,N/A,,Clear,110,2013-03-07 15:53:00
7:53 AM,12.9,1.0,59,29.92,10.0,ESE,9.2,-,N/A,,Clear,120,2013-03-07 16:53:00
8:53 AM,15.1,1.9,56,29.91,10.0,ESE,11.5,-,N/A,,Clear,110,2013-03-07 17:53:00
9:53 AM,16.0,1.9,54,29.89,10.0,ESE,9.2,19.6,N/A,,Clear,120,2013-03-07 18:53:00
10:53 AM,18.0,3.0,52,29.88,10.0,Variable,6.9,-,N/A,,Clear,0,2013-03-07 19:53:00
11:53 AM,21.9,3.9,46,29.86,10.0,East,9.2,20.7,N/A,,Clear,100,2013-03-07 20:53:00
12:53 PM,24.1,5.0,44,29.85,10.0,Variable,6.9,17.3,N/A,,Clear,0,2013-03-07 21:53:00
1:53 PM,26.1,6.1,43,29.82,10.0,Variable,6.9,18.4,N/A,,Clear,0,2013-03-07 22:53:00
2:53 PM,26.1,6.1,43,29.80,10.0,ESE,9.2,17.3,N/A,,Clear,120,2013-03-07 23:53:00
3:53 PM,28.0,7.0,41,29.77,10.0,ESE,8.1,-,N/A,,Clear,120,2013-03-08 00:53:00
4:53 PM,26.1,7.0,44,29.76,10.0,Variable,3.5,-,N/A,,Clear,0,2013-03-08 01:53:00
5:53 PM,26.1,7.0,44,29.74,10.0,ESE,9.2,-,N/A,,Clear,120,2013-03-08 02:53:00
6:53 PM,24.1,7.0,48,29.73,10.0,ESE,8.1,-,N/A,,Clear,110,2013-03-08 03:53:00
7:53 PM,21.9,6.1,51,29.74,10.0,Calm,Calm,-,N/A,,Clear,0,2013-03-08 04:53:00
8:53 PM,21.9,7.0,53,29.73,10.0,Calm,Calm,-,N/A,,Clear,0,2013-03-08 05:53:00
9:53 PM,25.0,8.1,49,29.71,10.0,Variable,6.9,-,N/A,,Clear,0,2013-03-08 06:53:00
10:53 PM,27.0,8.1,45,29.71,10.0,ESE,5.8,-,N/A,,Clear,120,2013-03-08 07:53:00
11:53 PM,26.1,8.1,47,29.71,10.0,Variable,5.8,-,N/A,,Clear,0,2013-03-08 08:53:00